SCP
0 0 0 0 0 0 0 0 0 0 0 0 0 0 0 0 0 0 0 0 0 0 0 0 0 0 0 0 0 0 0 0 0 0 0 0 0 0 0 0 0 0 0
0 0 0 0 0 0 0 0 0 0 0 0 0 0 0 0 0 0 0 0 0 0 0 0 0 0 0 0 0 0 0 0 0 0 0 0 0 0 0 0 0 0 0
0 0 0 0 0 0 0 0 0 0 0 0 0 0 0 0 0 0 0 0 0 0 0 0 0 0 0 0 0 0 0 0 0 0 0 0 0 0 0 0 0 0 0
0 0 0 0 0 0 0 0 0 0 0 0 0 0 0 0 0 0 0 0 0 0 0 0 0 0 0 0 0 0 0 0 0 0 0 0 0 0 0 0 0 0 0
0 0 0 0 0 0 0 0 0 0 0 0 0 0 0 0 0 0 0 0 0 0 0 0 0 0 0 0 0 0 0 0 0 0 0 0 0 0 0 0 0 0 0
0 0 0 0 0 0 0 0 0 0 0 0 0 0 0 0 0 0 0 0 0 0 0 0 0 0 0 0 0 0 0 0 0 0 0 0 0 0 0 0 0 0 0
0 0 0 0 0 0 0 0 0 0 0 0 0 0 0 0 0 0 0 0 0 0 0 0 0 0 0 0 0 0 0 0 0 0 0 0 0 0 0 0 0 0 0
0 0 0 0 0 0 0 0 0 0 0 0 0 0 0 0 0 0 0 0 0 0 0 0 0 0 0 0 0 0 0 0 0 0 0 0 0 0 0 0 0 0 0
0 0 0 0 0 0 0 0 0 0 0 0 0 0 0 0 0 0 0 0 0 0 0 0 0 0 0 0 0 0 0 0 0 0 0 0 0 0 0 0 0 0 0
0 0 0 0 0 0 0 0 0 0 0 0 0 0 0 0 0 0 0 0 0 0 0 0 0 0 0 0 0 0 0 0 0 0 0 0 0 0 0 0 0 0 0
0 0 0 0 0 0 0 0 0 0 0 0 0 0 0 0 0 0 0 0 0 0 0 0 0 0 0 0 0 0 0 0 0 0 0 0 0 0 0 0 0 0 0
0 0 0 0 0 0 0 0 0 0 0 0 0 0 0 0 0 0 0 0 0 0 0 0 0 0 0 0 0 0 0 0 0 0 0 0 0 0 0 0 0 0 0
0 0 0 0 0 0 0 0 0 0 0 0 0 0 0 0 0 0 0 0 0 0 0 0 0 0 0 0 0 0 0 0 0 0 0 0 0 0 0 0 0 0 0
0 -0 -0 -0 -0 -0 -0 -0 0 0 0 0 0 0 0 0 0 0 0 0 0 0 0 0 0 0 0 0 0 0 0 0 0 0 0 0 0 0 0 0 0 0 0
0 0 0 0 0 0 0 0 0 0 0 0 0 0 0 0 0 0 0 0 0 0 0 0 0 0 0 0 0 0 0 0 0 0 0 0 0 0 0 0 0 0 0
0 0 0 0 0 0 0 0 0 0 0 0 0 0 0 0 0 0 0 0 0 0 0 0 0 0 0 0 0 0 0 0 0 0 0 0 0 0 0 0 0 0 0
0 0 0 0 0 0 0 0 0 0 0 0 0 0 0 0 0 0 0 0 0 0 0 0 0 0 0 0 0 0 0 0 0 0 0 0 0 0 0 0 0 0 0
0 0 0 0 0 0 0 0 0 0 0 0 0 0 0 0 0 0 0 0 0 0 0 0 0 0 0 0 0 0 0 0 0 0 0 0 0 0 0 0 0 0 0
0 0 0 0 0 0 0 0 0 0 0 0 0 0 0 0 0 0 0 0 0 0 0 0 0 0 0 0 0 0 0 0 0 0 0 0 0 0 0 0 0 0 0
0 0 0 0 0 0 0 0 0 0 0 0 0 0 0 0 0 0 0 0 0 0 0 0 0 0 0 0 0 0 0 0 0 0 0 0 0 0 0 0 0 0 0
0 0 0 0 0 0 0 0 0 0 0 0 0 0 0 0 0 0 0 0 0 0 0 0 0 0 0 0 0 0 0 0 0 0 0 0 0 0 0 0 0 0 0
0 0 0 0 0 0 0 0 0 0 0 0 0 0 0 0 0 0 0 0 0 0 0 0 0 0 0 0 0 0 0 0 0 0 0 0 0 0 0 0 0 0 0
0 0 0 0 0 0 0 0 0 0 0 0 0 0 0 0 0 0 0 0 0 0 0 0 0 0 0 0 0 0 0 0 0 0 0 0 0 0 0 0 0 0 0
0 0 0 0 0 0 0 0 0 0 0 0 0 0 0 0 0 0 0 0 0 0 0 0 0 0 0 0 0 0 0 0 0 0 0 0 0 0 0 0 0 0 0
0 0 0 0 0 0 0 0 0 0 0 0 0 0 0 0 0 0 0 0 0 0 0 0 0 0 0 0 0 0 0 0 0 0 0 0 0 0 0 0 0 0 0
0 0 0 0 0 0 0 0 0 0 0 0 0 0 0 0 0 0 0 0 0 0 0 0 0 0 0 0 0 0 0 0 0 0 0 0 0 0 0 0 0 0 0
Wind_Speed
9 9 9 8 8 7 7 7 7 6 6 6 7 7 8 9 9 9 8 9 10 9 9 10 10 9 7 6 5 5 5 4 4 2 2 2 3 5 6 6 7 8 9
10 9 8 8 7 6 6 6 5 4 3 3 4 5 6 8 9 9 10 10 11 11 11 11 11 8 9 7 6 6 4 4 3 3 3 3 5 6 7 8 8 8 9
9 9 8 8 7 6 6 5 4 3 2 2 2 4 5 7 8 8 9 10 10 10 11 11 11 10 9 6 6 5 4 3 2 2 3 3 4 5 7 8 9 9 9
9 9 9 9 8 7 6 6 6 6 6 5 5 5 5 6 8 9 10 11 11 10 10 9 9 8 8 7 5 5 4 4 3 3 4 4 5 6 6 7 7 7 8
9 9 9 9 8 8 8 9 9 9 9 8 8 8 8 7 8 10 11 11 12 12 10 9 8 9 9 6 4 4 4 3 4 4 5 5 6 5 6 6 8 9 10
9 9 9 9 9 10 9 9 10 11 10 10 10 9 9 8 14 16 13 11 11 11 10 8 8 7 7 6 6 5 5 5 5 4 5 6 7 7 6 7 8 9 9
9 9 9 9 10 10 10 10 11 11 11 11 10 10 10 13 17 17 16 11 10 9 8 7 5 5 5 3 2 3 5 6 7 6 8 8 8 7 8 9 9 10 11
8 8 8 8 9 9 10 10 10 9 9 9 9 10 11 13 18 19 17 11 9 8 6 5 5 4 2 2 2 3 4 5 5 6 7 8 8 8 9 10 11 12 13
8 8 8 8 8 9 10 9 8 9 9 9 9 10 11 12 16 15 12 7 7 7 5 4 3 2 1 4 3 4 5 5 6 8 11 12 14 14 12 9 9 9 10
7 7 7 8 8 9 9 8 8 8 9 9 9 9 9 9 11 11 8 4 5 4 4 3 1 1 2 4 4 4 6 6 6 7 8 9 10 10 11 9 7 7 7
5 6 7 8 8 8 8 8 8 8 8 8 8 7 7 7 8 8 5 3 3 3 1 1 0 2 4 5 5 5 6 8 8 7 7 8 7 6 6 6 6 7 8
6 7 7 7 6 6 7 7 7 7 7 7 6 6 5 4 5 6 5 4 3 1 1 1 1 4 5 5 5 7 9 9 6 6 7 7 6 6 6 6 8 9 11
6 7 6 7 6 6 6 6 5 5 4 4 4 4 3 3 4 5 4 4 3 2 1 3 4 4 5 4 5 7 7 5 5 6 6 6 6 7 7 7 8 9 12
7 6 6 6 6 5 4 4 3 3 3 3 3 2 2 1 1 1 1 1 2 2 2 1 2 3 4 5 5 4 4 4 5 6 7 7 7 7 7 7 7 7 8
7 6 5 5 5 5 5 4 4 4 3 2 2 1 0 0 1 3 3 3 3 3 3 3 3 3 3 3 3 3 4 4 5 5 6 7 7 7 7 6 6 7 7
6 5 4 4 3 3 4 5 6 6 6 5 3 1 1 2 3 3 4 4 5 5 4 4 4 4 4 4 4 4 4 4 4 5 6 7 7 7 8 7 7 8 9
6 5 4 3 3 3 2 2 3 4 5 4 4 2 2 3 3 4 5 5 4 4 4 4 4 4 4 4 5 5 5 5 5 6 6 7 7 7 8 8 8 9 10
6 5 4 3 3 2 2 1 1 1 2 1 1 3 4 4 4 4 5 4 3 3 4 4 4 4 5 5 5 5 6 6 6 6 7 7 7 7 8 9 9 10 10
5 4 4 3 3 2 2 2 1 1 2 2 2 2 3 4 4 4 4 4 4 4 4 4 5 5 5 5 6 6 7 7 7 7 7 8 7 8 9 9 10 14 13
5 6 5 4 3 3 2 2 2 2 2 2 2 3 3 4 3 3 3 4 4 5 5 5 5 6 6 6 6 6 7 7 8 8 8 8 8 8 10 11 11 11 11
5 6 7 4 3 3 3 2 2 2 2 3 3 3 6 5 4 5 5 4 5 5 6 6 6 6 6 6 6 7 9 8 8 8 8 8 8 9 9 10 11 12 12
5 5 5 4 4 3 3 2 2 2 3 3 3 4 6 5 4 5 5 5 5 5 6 6 7 7 7 7 7 8 8 9 9 9 9 9 9 10 10 11 11 12 12
6 6 5 4 3 4 3 2 2 2 3 3 4 4 4 4 5 5 6 6 6 6 6 6 7 7 7 7 7 8 9 10 9 9 10 10 10 10 11 12 14 15 14
6 6 5 4 4 3 3 3 2 3 3 4 4 4 5 5 6 7 7 6 6 7 7 7 8 10 13 10 9 9 10 11 11 10 13 13 13 12 12 13 14 16 15
6 6 5 5 4 4 3 3 3 3 4 4 4 5 5 6 6 7 7 6 8 8 9 9 8 10 12 14 13 12 16 21 20 14 13 13 15 16 15 16 15 16 16
6 6 5 4 4 4 3 3 3 4 4 4 4 5 5 6 6 7 7 7 7 8 9 9 10 12 14 13 15 18 20 22 23 23 16 13 14 14 15 14 17 16 17
Wind_Direction
329 322 314 309 304 296 285 279 273 263 250 237 224 213 201 192 185 181 178 170 164 155 152 147 138 133 123 112 102 95 90 97 131 142 169 188 226 249 264 271 277 281 283
337 332 328 323 318 313 309 306 298 282 261 237 208 191 185 178 174 173 167 162 158 154 148 140 136 130 120 116 110 108 112 112 138 171 193 207 234 255 272 278 281 281 281
346 344 345 345 343 344 348 351 356 7 35 82 138 156 159 157 156 155 151 145 143 139 138 136 133 128 122 121 121 125 128 133 148 187 228 227 245 258 274 278 280 280 282
360 3 5 4 2 6 18 32 39 50 60 71 85 98 112 121 125 127 127 125 121 117 116 119 121 124 129 132 132 137 141 155 181 215 242 253 258 265 270 281 288 289 290
13 20 19 19 23 29 39 50 57 62 66 73 81 85 91 97 109 115 116 116 114 109 103 102 104 115 129 135 140 152 165 185 208 229 247 258 262 268 276 288 291 297 295
26 29 29 36 43 46 50 59 66 69 72 75 79 84 85 93 110 111 111 107 107 107 105 100 104 109 128 137 153 177 196 215 228 239 254 261 274 282 291 291 293 296 299
35 37 38 44 51 53 58 62 65 69 73 76 80 85 92 102 105 104 101 97 96 98 102 108 114 120 118 130 160 213 233 248 255 262 268 273 284 290 292 290 286 286 284
42 43 45 53 60 61 63 65 66 69 72 74 76 80 85 92 96 97 96 91 94 97 103 115 122 130 141 182 214 233 246 250 260 266 272 280 284 286 281 281 285 286 284
48 48 50 59 66 67 66 65 66 70 70 70 72 78 83 88 92 97 98 98 102 106 113 119 124 135 186 252 253 258 271 271 261 269 279 283 285 284 285 284 280 280 284
52 56 59 65 72 74 74 72 71 73 74 75 75 78 89 96 100 103 106 109 115 121 125 125 115 319 287 285 282 277 283 294 297 289 283 280 279 278 274 264 262 265 274
66 70 69 71 75 79 80 80 83 84 85 85 86 83 87 99 108 108 104 100 109 116 115 100 49 315 307 310 304 294 296 299 295 293 290 286 281 273 266 259 253 250 255
87 83 79 78 81 83 88 88 91 97 97 97 97 92 82 84 89 97 88 76 63 55 17 340 328 313 315 317 307 302 299 296 288 284 282 283 286 288 286 280 269 258 251
102 93 90 88 84 87 92 96 98 99 102 106 107 104 95 77 75 71 61 50 28 343 334 328 324 323 313 299 295 299 296 281 277 276 279 284 288 288 287 281 273 263 260
115 108 104 100 94 90 88 88 92 96 103 107 104 105 107 103 78 47 16 347 318 300 287 281 294 298 286 287 290 280 272 276 282 281 285 288 289 283 277 279 285 292 288
124 117 112 104 104 95 83 70 71 63 47 67 81 84 68 234 353 330 320 317 316 316 297 277 279 283 281 281 278 276 273 268 267 274 282 285 285 285 285 287 283 285 278
137 135 128 123 117 114 112 101 76 77 87 82 78 42 334 312 316 317 319 318 313 311 283 279 285 289 296 300 298 294 288 280 281 282 280 279 283 286 288 287 280 277 279
151 146 142 142 141 137 138 140 135 103 83 64 40 13 344 332 325 320 320 320 313 306 280 283 287 290 290 288 287 287 286 286 284 276 275 277 278 279 281 283 284 281 280
153 150 154 152 153 155 158 166 197 229 234 210 16 351 340 328 320 321 327 307 278 270 279 283 284 284 285 285 285 284 285 286 279 276 275 274 272 273 276 278 280 281 284
160 157 158 153 154 156 160 176 201 229 259 274 277 278 314 307 297 306 313 291 294 289 283 280 280 281 281 281 281 280 280 279 279 278 275 272 270 269 272 275 278 281 283
165 161 158 158 161 170 181 195 211 232 254 270 283 297 299 289 288 293 289 285 283 283 282 281 280 279 280 279 279 278 277 276 276 272 272 272 270 268 270 275 277 280 281
161 163 167 168 177 184 191 203 218 242 264 280 288 298 303 300 295 295 293 287 283 283 283 283 282 281 276 274 274 274 275 275 275 275 274 273 273 271 271 272 275 276 278
164 164 171 177 179 187 194 202 222 250 270 281 291 293 299 293 286 287 289 288 286 282 281 281 280 278 275 273 273 274 273 273 273 272 272 273 272 273 274 274 275 278 279
167 167 171 176 181 188 192 209 230 253 270 281 289 293 292 289 291 290 288 288 287 284 281 276 275 274 272 267 263 262 265 268 271 275 277 278 277 276 275 276 277 280 282
171 174 176 176 183 195 205 219 235 254 268 278 283 285 287 289 289 288 287 285 284 282 277 273 270 272 275 275 271 264 260 264 268 269 268 268 272 273 274 275 278 281 283
174 176 179 182 187 197 208 223 239 253 264 271 278 283 286 286 286 286 285 283 283 280 280 279 273 274 275 275 274 272 273 276 277 274 269 267 269 271 274 277 279 282 284
176 178 179 182 190 198 210 227 241 253 263 270 274 277 280 282 282 284 285 283 283 283 283 281 277 279 281 281 279 279 282 285 287 287 284 278 277 277 280 282 285 286 287